This is the latest recevied weather packets stored in our database for station/object N3SW-13. If no packets are shown the sender has not sent any weather packets the latest 10 day(s).
| Time | Temp. | Humidity | Pressure | Rain* | Wind** | Luminosity | Snow |
|---|---|---|---|---|---|---|---|
| 1777743038 | 13.33° C | 42% | 1012.7 hPa | 0 mm | - | - | - |
| 1777739437 | 11.67° C | 49% | 1013.7 hPa | 0 mm | - | - | - |
| 1777738526 | 10.56° C | 47% | 1014 hPa | 0 mm | - | - | - |
| 1777734023 | 9.44° C | 52% | 1014.4 hPa | 0 mm | - | - | - |
| 1777733123 | 8.89° C | 53% | 1014.2 hPa | 0 mm | - | - | - |
| 1777728617 | 8.33° C | 57% | 1014.6 hPa | 0 mm | - | - | - |
| 1777726813 | 8.33° C | 59% | 1014.2 hPa | 0 mm | - | - | - |
| 1777724113 | 8.33° C | 59% | 1014.1 hPa | 0 mm | - | - | - |
| 1777721406 | 8.33° C | 57% | 1013.5 hPa | 0 mm | - | - | - |
| 1777715159 | 8.89° C | 54% | 1013.5 hPa | 0 mm | - | - | - |
| 1777713352 | 8.89° C | 57% | 1013.5 hPa | 0 mm | - | - | - |
| 1777711548 | 9.44° C | 61% | 1013.2 hPa | 0 mm | - | - | - |
| 1777707039 | 10° C | 68% | 1012.5 hPa | 0 mm | - | - | - |
| 1777706137 | 10° C | 67% | 1012.8 hPa | 0 mm | - | - | - |
| 1777700726 | 11.11° C | 63% | 1013.1 hPa | 0 mm | - | - | - |
| 1777695313 | 12.78° C | 64% | 1013.2 hPa | 0 mm | - | - | - |
| 1777691709 | 13.89° C | 59% | 1012.9 hPa | 0 mm | - | - | - |
| 1777690809 | 13.89° C | 58% | 1012.5 hPa | 0 mm | - | - | - |
| 1777689909 | 14.44° C | 58% | 1012.6 hPa | 0 mm | - | - | - |
| 1777689008 | 14.44° C | 59% | 1012.4 hPa | 0 mm | - | - | - |
| 1777688108 | 14.44° C | 62% | 1011.9 hPa | 0 mm | - | - | - |
| 1777687207 | 14.44° C | 61% | 1011.4 hPa | 0 mm | - | - | - |
| 1777681804 | 15° C | 58% | 1010.4 hPa | 0 mm | - | - | - |
| 1777680904 | 15° C | 59% | 1010.2 hPa | 0 mm | - | - | - |
| 1777679103 | 15.56° C | 58% | 1009.2 hPa | 0 mm | - | - | - |
* Rain latest hour (hover to see other rain measurements)
** Current wind speed in m/s (hover to see current wind gust speed)